Time,TemperatureF,DewpointF,PressureIn,WindDirection,WindDirectionDegrees,WindSpeedMPH,WindSpeedGustMPH,Humidity,HourlyPrecipIn,Conditions,Clouds,dailyrainin,SoftwareType,DateUTC
2013-11-19 00:05:00,35.1,28.3,29.46,West,270,10.9,-999.0,76,-99.99,,,0.00,Acu-Link.com,2013-11-19 05:05:00,
2013-11-19 00:20:00,34.9,28.4,29.47,West,270,4.7,-999.0,77,-99.99,,,0.00,Acu-Link.com,2013-11-19 05:20:00,
2013-11-19 00:36:00,34.7,27.9,29.46,West,270,7.8,-999.0,76,-99.99,,,0.00,Acu-Link.com,2013-11-19 05:36:00,
2013-11-19 00:51:00,34.7,27.3,29.46,West,270,8.3,-999.0,74,-99.99,,,0.00,Acu-Link.com,2013-11-19 05:51:00,
2013-11-19 01:06:00,34.0,25.3,29.46,WSW,247,8.3,-999.0,70,-99.99,,,0.00,Acu-Link.com,2013-11-19 06:06:00,
2013-11-19 01:21:00,32.4,25.1,29.47,WSW,247,18.1,-999.0,74,-99.99,,,0.00,Acu-Link.com,2013-11-19 06:21:00,
2013-11-19 01:36:00,32.5,24.5,29.48,West,270,10.4,-999.0,72,-99.99,,,0.00,Acu-Link.com,2013-11-19 06:36:00,
2013-11-19 01:52:00,32.7,24.4,29.48,WSW,247,7.8,-999.0,71,-99.99,,,0.00,Acu-Link.com,2013-11-19 06:52:00,
2013-11-19 02:07:00,32.9,23.5,29.48,WSW,247,11.9,-999.0,68,-99.99,,,0.00,Acu-Link.com,2013-11-19 07:07:00,
2013-11-19 02:22:00,32.2,24.5,29.50,WSW,247,6.8,-999.0,73,-99.99,,,0.00,Acu-Link.com,2013-11-19 07:22:00,
2013-11-19 02:37:00,28.9,23.2,29.52,West,270,13.5,-999.0,79,-99.99,,,0.00,Acu-Link.com,2013-11-19 07:37:00,
2013-11-19 02:53:00,28.2,20.7,29.53,WNW,292,12.5,-999.0,73,-99.99,,,0.00,Acu-Link.com,2013-11-19 07:53:00,
2013-11-19 03:08:00,27.9,19.7,29.54,WSW,247,14.0,-999.0,71,-99.99,,,0.00,Acu-Link.com,2013-11-19 08:08:00,
2013-11-19 03:23:00,27.5,19.4,29.54,SSW,202,17.6,-999.0,71,-99.99,,,0.00,Acu-Link.com,2013-11-19 08:23:00,
2013-11-19 03:38:00,27.1,18.6,29.54,SW,225,24.3,-999.0,70,-99.99,,,0.00,Acu-Link.com,2013-11-19 08:38:00,
2013-11-19 03:54:00,27.1,18.6,29.56,WSW,247,12.5,-999.0,70,-99.99,,,0.00,Acu-Link.com,2013-11-19 08:54:00,
2013-11-19 04:09:00,27.1,18.6,29.56,West,270,13.5,-999.0,70,-99.99,,,0.00,Acu-Link.com,2013-11-19 09:09:00,
2013-11-19 04:24:00,26.8,18.7,29.58,WNW,292,20.7,-999.0,71,-99.99,,,0.00,Acu-Link.com,2013-11-19 09:24:00,
2013-11-19 04:39:00,26.6,18.5,29.58,SW,225,16.1,-999.0,71,-99.99,,,0.00,Acu-Link.com,2013-11-19 09:39:00,
2013-11-19 04:55:00,26.4,17.6,29.59,WSW,247,13.0,-999.0,69,-99.99,,,0.00,Acu-Link.com,2013-11-19 09:55:00,
2013-11-19 05:10:00,26.2,17.4,29.59,West,270,6.8,-999.0,69,-99.99,,,0.00,Acu-Link.com,2013-11-19 10:10:00,
2013-11-19 05:25:00,25.7,17.9,29.60,SSW,202,11.9,-999.0,72,-99.99,,,0.00,Acu-Link.com,2013-11-19 10:25:00,
2013-11-19 05:40:00,25.0,18.5,29.61,WSW,247,9.4,-999.0,76,-99.99,,,0.00,Acu-Link.com,2013-11-19 10:40:00,
2013-11-19 05:55:00,24.8,18.3,29.62,West,270,11.9,-999.0,76,-99.99,,,0.00,Acu-Link.com,2013-11-19 10:55:00,
2013-11-19 06:11:00,24.6,18.1,29.64,WSW,247,8.3,-999.0,76,-99.99,,,0.00,Acu-Link.com,2013-11-19 11:11:00,
2013-11-19 06:26:00,24.3,18.1,29.64,WSW,247,8.9,-999.0,77,-99.99,,,0.00,Acu-Link.com,2013-11-19 11:26:00,
2013-11-19 06:41:00,24.4,16.7,29.66,WSW,247,13.0,-999.0,72,-99.99,,,0.00,Acu-Link.com,2013-11-19 11:41:00,
2013-11-19 06:56:00,24.4,16.7,29.65,NW,315,16.6,-999.0,72,-99.99,,,0.00,Acu-Link.com,2013-11-19 11:56:00,
2013-11-19 07:11:00,24.4,17.0,29.67,WSW,247,8.9,-999.0,73,-99.99,,,0.00,Acu-Link.com,2013-11-19 12:11:00,
2013-11-19 07:27:00,24.4,17.3,29.68,NNE,22,4.2,-999.0,74,-99.99,,,0.00,Acu-Link.com,2013-11-19 12:27:00,
2013-11-19 07:42:00,24.1,17.3,29.68,SW,225,20.2,-999.0,75,-99.99,,,0.00,Acu-Link.com,2013-11-19 12:42:00,
2013-11-19 07:57:00,24.3,17.5,29.69,West,270,11.4,-999.0,75,-99.99,,,0.00,Acu-Link.com,2013-11-19 12:57:00,
2013-11-19 08:12:00,24.4,17.0,29.69,WSW,247,16.6,-999.0,73,-99.99,,,0.00,Acu-Link.com,2013-11-19 13:12:00,
2013-11-19 08:28:00,24.4,16.7,29.70,SW,225,27.4,-999.0,72,-99.99,,,0.00,Acu-Link.com,2013-11-19 13:28:00,
2013-11-19 08:43:00,24.4,17.3,29.71,WSW,247,19.7,-999.0,74,-99.99,,,0.00,Acu-Link.com,2013-11-19 13:43:00,
2013-11-19 08:58:00,24.4,17.6,29.71,West,270,10.4,-999.0,75,-99.99,,,0.00,Acu-Link.com,2013-11-19 13:58:00,
2013-11-19 09:13:00,24.6,17.5,29.72,SW,225,15.5,-999.0,74,-99.99,,,0.00,Acu-Link.com,2013-11-19 14:13:00,
2013-11-19 09:28:00,24.3,17.2,29.72,SW,225,14.5,-999.0,74,-99.99,,,0.00,Acu-Link.com,2013-11-19 14:28:00,
2013-11-19 09:44:00,25.2,17.5,29.73,West,270,6.3,-999.0,72,-99.99,,,0.00,Acu-Link.com,2013-11-19 14:44:00,
2013-11-19 09:59:00,25.2,16.5,29.74,South,180,9.9,-999.0,69,-99.99,,,0.00,Acu-Link.com,2013-11-19 14:59:00,
2013-11-19 10:14:00,25.2,15.8,29.74,NNE,22,11.9,-999.0,67,-99.99,,,0.00,Acu-Link.com,2013-11-19 15:14:00,
2013-11-19 10:29:00,24.6,15.9,29.74,West,270,9.4,-999.0,69,-99.99,,,0.00,Acu-Link.com,2013-11-19 15:29:00,
2013-11-19 10:44:00,25.0,16.9,29.75,SW,225,8.9,-999.0,71,-99.99,,,0.00,Acu-Link.com,2013-11-19 15:44:00,
2013-11-19 11:00:00,25.3,15.9,29.76,West,270,13.5,-999.0,67,-99.99,,,0.00,Acu-Link.com,2013-11-19 16:00:00,
2013-11-19 11:15:00,25.3,15.2,29.77,SW,225,16.6,-999.0,65,-99.99,,,0.00,Acu-Link.com,2013-11-19 16:15:00,
2013-11-19 11:30:00,25.9,15.4,29.76,NNW,337,12.5,-999.0,64,-99.99,,,0.00,Acu-Link.com,2013-11-19 16:30:00,
2013-11-19 11:45:00,26.4,15.2,29.76,SW,225,20.7,-999.0,62,-99.99,,,0.00,Acu-Link.com,2013-11-19 16:45:00,
2013-11-19 12:01:00,26.8,15.2,29.78,WSW,247,17.1,-999.0,61,-99.99,,,0.00,Acu-Link.com,2013-11-19 17:01:00,
2013-11-19 12:17:00,26.8,15.6,29.77,WSW,247,13.0,-999.0,62,-99.99,,,0.00,Acu-Link.com,2013-11-19 17:17:00,
2013-11-19 12:32:00,26.8,15.9,29.77,West,270,4.7,-999.0,63,-99.99,,,0.00,Acu-Link.com,2013-11-19 17:32:00,
2013-11-19 12:47:00,26.6,16.1,29.78,West,270,25.3,-999.0,64,-99.99,,,0.01,Acu-Link.com,2013-11-19 17:47:00,
2013-11-19 13:02:00,25.9,16.5,29.79,WSW,247,15.5,-999.0,67,-99.99,,,0.01,Acu-Link.com,2013-11-19 18:02:00,
2013-11-19 13:17:00,25.5,17.1,29.81,WSW,247,9.9,-999.0,70,-99.99,,,0.01,Acu-Link.com,2013-11-19 18:17:00,
2013-11-19 13:32:00,25.7,17.0,29.81,West,270,19.7,-999.0,69,-99.99,,,0.01,Acu-Link.com,2013-11-19 18:32:00,